Location: San Martino di Castrozza
(46.2667°N, 11.8000°E)
Time: 15:17:21
(UTC+00:00)

Cosmos 1833 - Pass Details

Date: 23 April 2021
Orbit: 835 x 864 km, 70.9° (Epoch: 13 May)

Event Time Altitude Azimuth Distance (km) Brightness Sun altitude
Rises 03:01:58 0° 332° (NNW) 3,429 7.4 -11.7°
Reaches altitude 10° 03:04:25 10° 332° (NNW) 2,494 6.7 -11.4°
Maximum altitude 03:10:09 82° 246° (WSW) 873 4.2 -10.5°
Drops below altitude 10° 03:15:54 10° 159° (SSE) 2,493 6.6 -9.7°
Sets 03:18:21 0° 159° (SSE) 3,428 7.3 -9.3°
